Weather History for K05U - October, 2012

Change the Weather History Date:

Monday, October 8, 2012

  Actual Average Record
Temperature  
Mean Temperature 52 °F -  
Max Temperature 73 °F - - ()
Min Temperature 32 °F - - ()
Degree Days  
Heating Degree Days 12    
Growing Degree Days 2 (Base 50)    
Moisture  
Dew Point -    
Average Humidity    
Maximum Humidity    
Minimum Humidity    
Precipitation  
Precipitation 0.00 in - - ()
Sea Level Pressure  
Sea Level Pressure 30.08 in    
Wind  
Wind Speed 4 mph ()    
Max Wind Speed 10 mph    
Max Gust Speed -    
Visibility 9.5 miles    
Events      
T = Trace of Precipitation, MM = Missing Value Source: Averaged Metar Reports

Daily Weather History Graph

Daily Weather History Graph

Search for Another Location

Airport or City:

Trip Planner

Search our weather history database for the weather conditions in past years. The results will help you decide how hot, cold, wet, or windy it might be!

Date:

Astronomy

Oct. 08, 2012 Rise Set
Actual Time 6:47 AM PDT 6:14 PM PDT
Civil Twilight 6:20 AM PDT 6:41 PM PDT
Nautical Twilight 5:49 AM PDT 7:12 PM PDT
Astronomical Twilight 5:18 AM PDT 7:43 PM PDT
Moon No Moon Rise 2:05 PM PDT (10/8)
Length of Visible Light 12h 20m
Length of Day
11h 26m
Last Quarter, 45% of the Moon is Illuminated
Oct 8
Last Quarter
Oct 15
New
Oct 21
First Quarter
Oct 29
Full
Nov 6
Last Quarter

Hourly Weather History & Observations

Time (PDT) Temp. Windchill Dew Point Humidity Pressure Visibility Wind Dir Wind Speed Gust Speed Precip Events Conditions
12:15 AM 35.6 °F - - N/A% 30.13 in 10.0 mi Calm Calm - N/A   Clear
12:35 AM 35.6 °F 30.7 °F - N/A% 30.13 in 10.0 mi SSW 5.8 mph - N/A   Clear
12:55 AM 33.8 °F 29.6 °F - N/A% 30.13 in 10.0 mi SSW 4.6 mph - N/A   Clear
1:15 AM 33.8 °F 27.7 °F - N/A% 30.13 in 10.0 mi SSW 6.9 mph - N/A   Clear
1:35 AM 33.8 °F 29.6 °F - N/A% 30.13 in 10.0 mi South 4.6 mph - N/A   Clear
1:55 AM 32.0 °F 26.4 °F - N/A% 30.13 in 10.0 mi SSW 5.8 mph - N/A   Clear
2:15 AM 35.6 °F 30.7 °F - N/A% 30.13 in 10.0 mi SSW 5.8 mph - N/A   Clear
2:35 AM 35.6 °F 29.9 °F - N/A% 30.13 in 10.0 mi SSW 6.9 mph - N/A   Clear
2:55 AM 35.6 °F 29.9 °F - N/A% 30.13 in 10.0 mi South 6.9 mph - N/A   Clear
3:15 AM 35.6 °F 29.2 °F - N/A% 30.13 in 10.0 mi South 8.1 mph - N/A   Clear
3:35 AM 37.4 °F 32.1 °F - N/A% 30.12 in 10.0 mi South 6.9 mph - N/A   Clear
3:55 AM 33.8 °F 29.6 °F - N/A% 30.12 in 10.0 mi South 4.6 mph - N/A   Clear
4:15 AM 33.8 °F 29.6 °F - N/A% 30.12 in 10.0 mi SSW 4.6 mph - N/A   Clear
4:35 AM 32.0 °F - - N/A% 30.13 in 10.0 mi Calm Calm - N/A   Clear
4:55 AM 32.0 °F - - N/A% 30.13 in 10.0 mi Calm Calm - N/A   Clear
5:15 AM 32.0 °F - - N/A% 30.12 in 10.0 mi Calm Calm - N/A   Clear
5:35 AM 32.0 °F 26.4 °F - N/A% 30.12 in 10.0 mi SSW 5.8 mph - N/A   Clear
5:55 AM 32.0 °F 26.4 °F - N/A% 30.12 in 10.0 mi SSW 5.8 mph - N/A   Clear
6:15 AM 32.0 °F 27.5 °F - N/A% 30.12 in 10.0 mi South 4.6 mph - N/A   Clear
6:35 AM 32.0 °F 25.6 °F - N/A% 30.12 in 10.0 mi SW 6.9 mph - N/A   Clear
6:55 AM 32.0 °F - - N/A% 30.13 in 10.0 mi Calm Calm - N/A   Clear
7:15 AM 32.0 °F - - N/A% 30.13 in 10.0 mi Calm Calm - N/A   Clear
7:55 AM 37.4 °F - - N/A% 30.13 in 10.0 mi Calm Calm - N/A   Clear
8:15 AM 41.0 °F - - N/A% 30.14 in 10.0 mi Calm Calm - N/A   Clear
8:35 AM 44.6 °F - - N/A% 30.14 in 10.0 mi Calm Calm - N/A   Clear
8:55 AM 48.2 °F - - N/A% 30.14 in 10.0 mi Calm Calm - N/A   Clear
9:15 AM 51.8 °F - - N/A% 30.13 in 10.0 mi Calm Calm - N/A   Clear
9:35 AM 55.4 °F - - N/A% 30.13 in 10.0 mi Calm Calm - N/A   Clear
9:55 AM 57.2 °F - - N/A% 30.12 in 10.0 mi Calm Calm - N/A   Clear
10:15 AM 59.0 °F - - N/A% 30.12 in 10.0 mi Calm Calm - N/A   Clear
10:35 AM 62.6 °F - - N/A% 30.11 in 3.0 mi Calm Calm - N/A   Clear
10:55 AM 64.4 °F - - N/A% 30.10 in 2.0 mi Calm Calm - N/A   Clear
11:15 AM 64.4 °F - - N/A% 30.10 in 2.5 mi Calm Calm - N/A   Clear
11:35 AM 66.2 °F - - N/A% 30.09 in 4.0 mi Calm Calm - N/A   Clear
11:55 AM 68.0 °F - - N/A% 30.09 in 3.0 mi Calm Calm - N/A   Clear
12:15 PM 68.0 °F - - N/A% 30.08 in 10.0 mi Calm Calm - N/A   Clear
12:35 PM 71.6 °F - - N/A% 30.08 in 9.0 mi West 10.4 mph - N/A   Clear
1:15 PM 69.8 °F - - N/A% 30.06 in 10.0 mi WNW 4.6 mph - N/A   Clear
1:35 PM - - - N/A% 30.05 in 10.0 mi NW 4.6 mph - N/A   Mostly Cloudy
1:55 PM 71.6 °F - - N/A% 30.05 in 10.0 mi North 3.5 mph - N/A   Mostly Cloudy
2:15 PM 73.4 °F - - N/A% 30.05 in 10.0 mi South 4.6 mph - N/A   Mostly Cloudy
2:35 PM 73.4 °F - - N/A% 30.04 in 10.0 mi SSW 10.4 mph - N/A   Partly Cloudy
2:55 PM 71.6 °F - - N/A% 30.04 in 10.0 mi Calm Calm - N/A   Partly Cloudy
3:15 PM 69.8 °F - - N/A% 30.03 in 10.0 mi Calm Calm - N/A   Partly Cloudy
3:35 PM 68.0 °F - - N/A% 30.03 in 10.0 mi Calm Calm - N/A   Clear
3:55 PM 68.0 °F - - N/A% 30.02 in 10.0 mi Calm Calm - N/A   Scattered Clouds
4:15 PM 68.0 °F - - N/A% 30.02 in 10.0 mi North 4.6 mph - N/A   Mostly Cloudy
4:35 PM 71.6 °F - - N/A% 30.02 in 10.0 mi Calm Calm - N/A   Partly Cloudy
4:55 PM 73.4 °F - - N/A% 30.02 in 10.0 mi SE 6.9 mph - N/A   Scattered Clouds
5:15 PM 71.6 °F - - N/A% 30.02 in 10.0 mi SE 5.8 mph - N/A   Mostly Cloudy
5:35 PM 69.8 °F - - N/A% 30.02 in 10.0 mi SE 8.1 mph - N/A   Mostly Cloudy
6:15 PM 64.4 °F - - N/A% 30.02 in 10.0 mi SSW 4.6 mph - N/A   Mostly Cloudy
6:35 PM 62.6 °F - - N/A% 30.02 in 10.0 mi South 6.9 mph - N/A   Overcast
7:15 PM 55.4 °F - - N/A% 30.02 in 10.0 mi SE 8.1 mph - N/A   Mostly Cloudy
7:35 PM 53.6 °F - - N/A% 30.03 in 10.0 mi ESE 8.1 mph - N/A   Partly Cloudy
7:55 PM 53.6 °F - - N/A% 30.03 in 10.0 mi SSE 6.9 mph - N/A   Clear
8:15 PM 53.6 °F - - N/A% 30.04 in 10.0 mi South 8.1 mph - N/A   Scattered Clouds
8:35 PM 53.6 °F - - N/A% 30.04 in 10.0 mi South 6.9 mph - N/A   Partly Cloudy
8:55 PM 53.6 °F - - N/A% 30.04 in 10.0 mi SSE 9.2 mph - N/A   Clear
9:15 PM 55.4 °F - - N/A% 30.04 in 10.0 mi SSW 5.8 mph - N/A   Clear
9:35 PM 50.0 °F - - N/A% 30.05 in 10.0 mi Calm Calm - N/A   Clear
9:55 PM 50.0 °F - - N/A% 30.06 in 10.0 mi West 6.9 mph - N/A   Clear
10:15 PM 51.8 °F - - N/A% 30.06 in 10.0 mi West 6.9 mph - N/A   Clear
10:55 PM 50.0 °F - - N/A% 30.06 in 10.0 mi SSW 8.1 mph - N/A   Clear
11:15 PM 48.2 °F - - N/A% 30.07 in 10.0 mi SSW 6.9 mph - N/A   Clear
11:35 PM 46.4 °F 43.5 °F - N/A% 30.07 in 10.0 mi South 5.8 mph - N/A   Clear
11:55 PM 44.6 °F 43.1 °F - N/A% 30.07 in 10.0 mi SSE 3.5 mph - N/A   Clear